Lake Mead Weather Center

Moon Phase Calendar



Lake Mead Water Level
Online Cameras

 


      

Current Conditions in Meadview
7/20/2024 7:06:15 PM

108°F
Feels Like 106
Clear
Humidity
15%
Pressure
29.71"
Wind
17.8 mph (W)
Dew Point
51°F
UV Index
0/10 (Low)
Visibility
6 mi

Hourly Forecast

Date & Time Sat, Jul 20
7:00 PM
Sat, Jul 20
8:00 PM
Sat, Jul 20
9:00 PM
Sat, Jul 20
10:00 PM
Sat, Jul 20
11:00 PM
Sun, Jul 21
12:00 AM
Sun, Jul 21
1:00 AM
Sun, Jul 21
2:00 AM
Sun, Jul 21
3:00 AM
Sun, Jul 21
4:00 AM
Sun, Jul 21
5:00 AM
Sun, Jul 21
6:00 AM
Sun, Jul 21
7:00 AM
Sun, Jul 21
8:00 AM
Sun, Jul 21
9:00 AM
Sun, Jul 21
10:00 AM
Sun, Jul 21
11:00 AM
Sun, Jul 21
12:00 PM
Sun, Jul 21
1:00 PM
Sun, Jul 21
2:00 PM
Sun, Jul 21
3:00 PM
Sun, Jul 21
4:00 PM
Sun, Jul 21
5:00 PM
Sun, Jul 21
6:00 PM
Sun, Jul 21
7:00 PM
Sun, Jul 21
8:00 PM
Sun, Jul 21
9:00 PM
Sun, Jul 21
10:00 PM
Sun, Jul 21
11:00 PM
Mon, Jul 22
12:00 AM
Mon, Jul 22
1:00 AM
Mon, Jul 22
2:00 AM
Mon, Jul 22
3:00 AM
Mon, Jul 22
4:00 AM
Mon, Jul 22
5:00 AM
Mon, Jul 22
6:00 AM
Mon, Jul 22
7:00 AM
Mon, Jul 22
8:00 AM
Mon, Jul 22
9:00 AM
Mon, Jul 22
10:00 AM
Mon, Jul 22
11:00 AM
Mon, Jul 22
12:00 PM
Mon, Jul 22
1:00 PM
Mon, Jul 22
2:00 PM
Mon, Jul 22
3:00 PM
Mon, Jul 22
4:00 PM
Mon, Jul 22
5:00 PM
Mon, Jul 22
6:00 PM
Condition
Clear

Clear

Clear

Clouds

Clouds

Clear

Clouds

Clouds

Clear

Clouds

Clouds

Clouds

Clouds

Clouds

Clouds

Clouds

Clear

Clear

Clear

Clear

Clear

Clear

Clear

Clear

Clear

Clear

Clear

Clear

Rain

Rain

Clouds

Clouds

Clouds

Clouds

Clouds

Clear

Clear

Clear

Clear

Clear

Clear

Clear

Clear

Clear

Clear

Clear

Clouds

Clouds
Temperature 108°F108°F106°F105°F102°F99°F97°F96°F94°F95°F95°F94°F95°F98°F100°F102°F104°F106°F108°F110°F111°F112°F111°F110°F109°F104°F99°F99°F96°F95°F97°F94°F93°F92°F91°F92°F94°F96°F98°F100°F103°F105°F108°F110°F111°F111°F112°F110°F
Feels Like 106°F106°F104°F102°F99°F96°F94°F93°F92°F92°F93°F92°F94°F97°F100°F102°F104°F106°F108°F110°F110°F110°F109°F108°F105°F102°F98°F98°F95°F95°F96°F95°F94°F93°F92°F92°F95°F97°F100°F102°F105°F107°F109°F110°F110°F111°F110°F108°F
Cloudiness 0%4%6%11%12%2%14%13%8%14%29%42%23%17%14%11%9%0%0%0%0%0%1%3%1%1%0%3%21%99%81%90%69%55%46%4%2%1%1%1%1%0%0%0%1%1%12%100%
Visibility 6 mi6 mi6 mi6 mi6 mi6 mi6 mi6 mi6 mi6 mi6 mi6 mi6 mi6 mi6 mi6 mi6 mi6 mi6 mi6 mi6 mi6 mi6 mi6 mi6 mi6 mi6 mi6 mi6 mi6 mi6 mi6 mi6 mi6 mi6 mi6 mi6 mi6 mi6 mi6 mi6 mi6 mi6 mi6 mi6 mi6 mi6 mi6 mi
Precipitation 0%0%0%0%0%0%0%0%0%0%0%0%0%0%0%0%0%0%0%0%0%0%0%0%0%0%0%0%20%99%73%84%67%43%24%0%0%0%0%0%0%0%0%0%0%0%0%0%
Humidity 15%16%17%17%19%21%22%24%25%24%24%24%27%27%25%23%22%20%18%17%15%15%14%14%14%19%23%25%29%30%28%34%37%38%38%38%36%34%32%29%26%23%21%19%17%17%14%15%
Dew Point 51°F52°F52°F51°F52°F50°F50°F51°F51°F51°F50°F51°F54°F56°F56°F56°F55°F55°F54°F53°F52°F51°F50°F48°F49°F51°F53°F54°F56°F57°F56°F60°F60°F60°F60°F60°F60°F61°F61°F60°F59°F58°F57°F56°F55°F54°F52°F52°F
Pressure 29.71"29.71"29.71"29.74"29.77"29.77"29.77"29.77"29.77"29.77"29.8"29.83"29.83"29.85"29.85"29.83"29.83"29.8"29.77"29.74"29.71"29.68"29.65"29.65"29.65"29.71"29.71"29.74"29.8"29.83"29.77"29.77"29.77"29.77"29.77"29.8"29.83"29.83"29.83"29.8"29.8"29.77"29.74"29.71"29.68"29.65"29.62"29.62"
Wind Speed 17.8 mph8.1 mph1.8 mph4.7 mph3.8 mph3.7 mph3.8 mph2.5 mph0.9 mph2.1 mph2.4 mph6.1 mph6.2 mph6.8 mph6.1 mph5.9 mph5.6 mph5.6 mph6.8 mph8.4 mph10.2 mph11.3 mph10.5 mph7.7 mph6.3 mph16.5 mph12.5 mph3.9 mph3 mph3.5 mph14.7 mph8.7 mph1.4 mph0.5 mph2.6 mph3.2 mph2.3 mph2.7 mph2.5 mph2.5 mph3.6 mph4.4 mph6.2 mph8 mph9.9 mph15.6 mph12.4 mph13.6 mph
Wind
Direction
263°
W
245°
WSW
285°
WNW
80°
E
94°
E
91°
E
81°
E
93°
E
96°
E
248°
WSW
224°
SW
215°
SW
205°
SSW
197°
SSW
199°
SSW
205°
SSW
210°
SSW
218°
SW
222°
SW
229°
SW
237°
WSW
248°
WSW
260°
W
277°
W
41°
NE
80°
E
121°
ESE
100°
E
297°
WNW
260°
W
201°
SSW
169°
S
123°
ESE
342°
NNW
162°
SSE
187°
S
239°
WSW
247°
WSW
228°
SW
232°
SW
231°
SW
238°
WSW
245°
WSW
249°
WSW
244°
WSW
259°
W
265°
W
284°
WNW

Daily Forecast

Date High Low Precip. Humidity
Today
Jul 20

Clear
112 °F
91 °F
0%
18%
Sunday
Jul 21

Rain
112 °F
94 °F
20%
20%
Monday
Jul 22

Rain
112 °F
91 °F
100%
23%
Tuesday
Jul 23

Rain
111 °F
89 °F
100%
21%
Wednesday
Jul 24

Clouds
111 °F
95 °F
0%
25%
Thursday
Jul 25

Clear
110 °F
93 °F
0%
24%
Friday
Jul 26

Clear
110 °F
91 °F
0%
25%
Saturday
Jul 27

Clear
108 °F
92 °F
0%
19%
Sunday
Jul 28

Clear
107 °F
91 °F
0%
22%
Monday
Jul 29

Rain
103 °F
84 °F
81%
28%
Tuesday
Jul 30

Rain
103 °F
86 °F
20%
28%
Wednesday
Jul 31

Rain
103 °F
89 °F
36%
38%
Thursday
Aug 1

Clouds
105 °F
93 °F
0%
18%
Friday
Aug 2

Clear
110 °F
90 °F
0%
16%
Saturday
Aug 3

Clouds
112 °F
93 °F
0%
14%
Sunday
Aug 4

Clouds
108 °F
87 °F
36%
26%

Temperature 8-14 Day Outlook



Precipitation 8-14 Day Outlook






About Us
Contact Us
Site Map
Search Site
Advertise With Us
   
Mead.USLakes.info
THE LAKE MEAD WEBSITE

Copyright 2024, Lakes Online
Privacy    |    Legal